| time (UTC) | temp F | wind direction | speed MPH | gust MPH | rain 1hr in | rain 24hr in | rain mn in | humidity % | barometer mb |
| 20260507071535 | 53 | 6 | 0.0 | 2.0 | 0.00 | 0.03 | 0.00 | 90 | 1014.8 |
| 20260507070035 | 52 | 66 | 0.0 | 2.0 | 0.00 | 0.03 | 0.00 | 93 | 1014.8 |
| 20260507064534 | 50 | 1 | 0.0 | 1.0 | 0.00 | 0.03 | 0.00 | 96 | 1014.8 |
| 20260507063035 | 49 | 49 | 0.0 | 1.0 | 0.00 | 0.03 | 0.00 | 98 | 1014.8 |
| 20260507061537 | 48 | 0 | 0.0 | 1.0 | 0.00 | 0.03 | 0.00 | 98 | 1014.6 |
| 20260507060036 | 47 | 0 | 0.0 | 1.0 | 0.00 | 0.03 | 0.00 | 98 | 1014.5 |
| 20260507054538 | 47 | 0 | 0.0 | 0.0 | 0.00 | 0.03 | 0.00 | 98 | 1014.5 |
| 20260507053035 | 46 | 0 | 0.0 | 0.0 | 0.00 | 0.03 | 0.00 | 99 | 1014.2 |
| 20260507051537 | 46 | 0 | 0.0 | 0.0 | 0.00 | 0.03 | 0.00 | 98 | 1014.1 |
| 20260507050035 | 46 | 0 | 0.0 | 0.0 | 0.00 | 0.03 | 0.00 | 98 | 1013.9 |
| 20260507044536 | 46 | 0 | 0.0 | 1.0 | 0.00 | 0.03 | 0.00 | 98 | 1014.0 |
| 20260507043035 | 46 | 0 | 0.0 | 1.0 | 0.00 | 0.03 | 0.00 | 98 | 1013.9 |
| 20260507041536 | 46 | 0 | 0.0 | 0.0 | 0.00 | 0.03 | 0.00 | 98 | 1013.9 |
| 20260507040036 | 46 | 0 | 0.0 | 0.0 | 0.00 | 0.03 | 0.00 | 98 | 1013.9 |
| 20260507034538 | 46 | 0 | 0.0 | 0.0 | 0.00 | 0.03 | 0.00 | 98 | 1013.9 |
| 20260507033035 | 46 | 0 | 0.0 | 0.0 | 0.00 | 0.03 | 0.00 | 98 | 1013.8 |
| 20260507031537 | 46 | 0 | 0.0 | 0.0 | 0.00 | 0.03 | 0.00 | 98 | 1013.8 |
| 20260507030036 | 46 | 0 | 0.0 | 0.0 | 0.00 | 0.03 | 0.00 | 98 | 1013.8 |
| 20260507024535 | 46 | 0 | 0.0 | 0.0 | 0.00 | 0.03 | 0.00 | 98 | 1013.7 |
| 20260507023045 | 47 | 0 | 0.0 | 0.0 | 0.00 | 0.03 | 0.00 | 98 | 1013.6 |
| 20260507021535 | 47 | 0 | 0.0 | 0.0 | 0.00 | 0.03 | 0.00 | 98 | 1013.5 |
| 20260507020052 | 47 | 0 | 0.0 | 0.0 | 0.00 | 0.03 | 0.00 | 98 | 1013.5 |
| 20260507014541 | 47 | 0 | 0.0 | 0.0 | 0.00 | 0.03 | 0.00 | 98 | 1013.5 |
| 20260507013047 | 47 | 0 | 0.0 | 0.0 | 0.00 | 0.03 | 0.00 | 98 | 1013.5 |
| 20260507011536 | 47 | 0 | 0.0 | 0.0 | 0.00 | 0.03 | 0.00 | 98 | 1013.5 |
| 20260507010036 | 46 | 0 | 0.0 | 0.0 | 0.00 | 0.03 | 0.00 | 98 | 1013.5 |
| 20260507004542 | 47 | 0 | 0.0 | 0.0 | 0.00 | 0.03 | 0.00 | 97 | 1013.4 |
| 20260507003042 | 47 | 0 | 0.0 | 0.0 | 0.00 | 0.03 | 0.00 | 97 | 1013.5 |
| 20260507001543 | 47 | 0 | 0.0 | 0.0 | 0.00 | 0.03 | 0.00 | 97 | 1013.5 |
| 20260507000036 | 48 | 0 | 0.0 | 1.0 | 0.00 | 0.03 | 0.00 | 98 | 1013.5 |
| 20260506234538 | 48 | 0 | 0.0 | 0.0 | 0.00 | 0.03 | 0.00 | 98 | 1013.4 |
| 20260506233036 | 47 | 0 | 0.0 | 0.0 | 0.00 | 0.03 | 0.00 | 98 | 1013.4 |
| 20260506231536 | 48 | 0 | 0.0 | 0.0 | 0.00 | 0.03 | 0.00 | 98 | 1013.4 |
| 20260506230045 | 47 | 0 | 0.0 | 0.0 | 0.00 | 0.03 | 0.00 | 98 | 1013.3 |
| 20260506224535 | 47 | 0 | 0.0 | 1.0 | 0.00 | 0.03 | 0.00 | 98 | 1013.3 |
| 20260506223041 | 45 | 0 | 0.0 | 0.0 | 0.00 | 0.03 | 0.00 | 98 | 1013.3 |
| 20260506221534 | 45 | 0 | 0.0 | 0.0 | 0.00 | 0.03 | 0.00 | 97 | 1013.3 |
| 20260506220041 | 44 | 0 | 0.0 | 0.0 | 0.00 | 0.03 | 0.00 | 97 | 1013.1 |
| 20260506214541 | 44 | 0 | 0.0 | 0.0 | 0.00 | 0.03 | 0.03 | 96 | 1013.2 |
| 20260506213041 | 44 | 0 | 0.0 | 0.0 | 0.00 | 0.03 | 0.03 | 95 | 1013.1 |
| 20260506211535 | 44 | 0 | 0.0 | 0.0 | 0.00 | 0.03 | 0.03 | 95 | 1013.1 |
| 20260506210042 | 45 | 0 | 0.0 | 0.0 | 0.00 | 0.03 | 0.03 | 95 | 1013.0 |
| 20260506204538 | 46 | 0 | 0.0 | 0.0 | 0.00 | 0.03 | 0.03 | 95 | 1013.1 |
| 20260506203036 | 46 | 0 | 0.0 | 0.0 | 0.00 | 0.03 | 0.03 | 94 | 1012.9 |
| 20260506201536 | 47 | 0 | 0.0 | 0.0 | 0.00 | 0.03 | 0.03 | 93 | 1012.7 |
| 20260506200035 | 48 | 0 | 0.0 | 0.0 | 0.00 | 0.03 | 0.03 | 91 | 1012.5 |
| 20260506194536 | 49 | 0 | 0.0 | 0.0 | 0.00 | 0.03 | 0.03 | 91 | 1012.5 |
| 20260506193037 | 50 | 0 | 0.0 | 0.0 | 0.00 | 0.03 | 0.03 | 89 | 1012.3 |
| 20260506191539 | 51 | 0 | 0.0 | 0.0 | 0.00 | 0.03 | 0.03 | 86 | 1012.0 |
| 20260506190035 | 53 | 0 | 0.0 | 0.0 | 0.00 | 0.03 | 0.03 | 82 | 1011.9 |
| 20260506184546 | 54 | 0 | 0.0 | 1.0 | 0.00 | 0.03 | 0.03 | 81 | 1011.8 |
| 20260506183050 | 54 | 0 | 0.0 | 1.0 | 0.00 | 0.03 | 0.03 | 79 | 1011.6 |
| 20260506181600 | 54 | 22 | 0.0 | 3.0 | 0.00 | 0.03 | 0.03 | 79 | 1011.3 |
| 20260506180037 | 55 | 20 | 0.0 | 3.0 | 0.00 | 0.03 | 0.03 | 79 | 1011.2 |
| 20260506174535 | 55 | 0 | 1.0 | 5.0 | 0.00 | 0.09 | 0.03 | 77 | 1011.1 |
| 20260506173053 | 55 | 27 | 2.0 | 7.0 | 0.00 | 0.09 | 0.03 | 76 | 1011.0 |
| 20260506171532 | 56 | 257 | 2.0 | 7.0 | 0.00 | 0.09 | 0.03 | 78 | 1010.8 |
| 20260506170040 | 56 | 53 | 3.0 | 8.0 | 0.00 | 0.09 | 0.03 | 77 | 1010.7 |
| 20260506164538 | 57 | 315 | 2.0 | 7.0 | 0.00 | 0.09 | 0.03 | 76 | 1010.6 |
| 20260506163038 | 57 | 32 | 3.0 | 11.0 | 0.00 | 0.09 | 0.03 | 75 | 1010.6 |
| 20260506161535 | 57 | 49 | 3.0 | 9.0 | 0.00 | 0.09 | 0.03 | 77 | 1010.7 |
| 20260506160044 | 57 | 294 | 1.0 | 7.0 | 0.00 | 0.09 | 0.03 | 77 | 1010.7 |
| 20260506154538 | 57 | 34 | 2.0 | 6.0 | 0.00 | 0.09 | 0.03 | 80 | 1010.7 |
| 20260506153050 | 56 | 56 | 1.0 | 6.0 | 0.00 | 0.09 | 0.03 | 82 | 1010.6 |
| 20260506151541 | 56 | 278 | 2.0 | 5.0 | 0.00 | 0.09 | 0.03 | 83 | 1010.6 |
| 20260506150035 | 56 | 330 | 2.0 | 7.0 | 0.00 | 0.09 | 0.03 | 85 | 1010.5 |
| 20260506144532 | 55 | 325 | 2.0 | 6.0 | 0.00 | 0.09 | 0.03 | 86 | 1010.6 |
| 20260506143036 | 55 | 299 | 2.0 | 9.0 | 0.00 | 0.09 | 0.03 | 88 | 1010.5 |
| 20260506141537 | 55 | 4 | 4.0 | 8.0 | 0.00 | 0.09 | 0.03 | 85 | 1010.5 |
| 20260506140036 | 55 | 350 | 1.0 | 5.0 | 0.00 | 0.09 | 0.03 | 88 | 1010.5 |
| 20260506134535 | 54 | 6 | 2.0 | 7.0 | 0.00 | 0.09 | 0.03 | 89 | 1010.5 |
| 20260506133037 | 53 | 8 | 3.0 | 6.0 | 0.00 | 0.09 | 0.03 | 90 | 1010.4 |
| 20260506131540 | 54 | 333 | 2.0 | 6.0 | 0.00 | 0.09 | 0.03 | 91 | 1010.4 |
| 20260506130036 | 53 | 2 | 3.0 | 6.0 | 0.00 | 0.09 | 0.03 | 91 | 1010.4 |
| 20260506124535 | 54 | 306 | 2.0 | 7.0 | 0.00 | 0.09 | 0.03 | 89 | 1010.3 |
| 20260506123036 | 54 | 316 | 3.0 | 8.0 | 0.00 | 0.09 | 0.03 | 89 | 1010.2 |
| 20260506121533 | 54 | 342 | 4.0 | 9.0 | 0.00 | 0.09 | 0.03 | 89 | 1010.0 |
| 20260506120040 | 56 | 313 | 3.0 | 7.0 | 0.00 | 0.09 | 0.03 | 89 | 1009.9 |
| 20260506114536 | 56 | 284 | 2.0 | 6.0 | 0.00 | 0.09 | 0.03 | 88 | 1009.8 |
| 20260506113041 | 57 | 288 | 2.0 | 7.0 | 0.00 | 0.09 | 0.03 | 88 | 1009.7 |
| 20260506111535 | 57 | 278 | 2.0 | 8.0 | 0.00 | 0.09 | 0.03 | 89 | 1009.7 |
| 20260506110038 | 56 | 335 | 2.0 | 6.0 | 0.00 | 0.09 | 0.03 | 90 | 1009.7 |
| 20260506104536 | 55 | 269 | 3.0 | 6.0 | 0.00 | 0.14 | 0.03 | 90 | 1009.6 |
| 20260506103039 | 55 | 290 | 3.0 | 11.0 | 0.02 | 0.14 | 0.03 | 91 | 1009.6 |
| 20260506101535 | 55 | 271 | 2.0 | 9.0 | 0.03 | 0.14 | 0.03 | 94 | 1009.6 |
| 20260506100037 | 54 | 319 | 3.0 | 8.0 | 0.02 | 0.13 | 0.02 | 94 | 1009.6 |
| 20260506094538 | 53 | 277 | 2.0 | 6.0 | 0.02 | 0.13 | 0.02 | 94 | 1009.6 |
| 20260506093035 | 54 | 22 | 2.0 | 5.0 | 0.00 | 0.11 | 0.00 | 92 | 1009.4 |
| 20260506091536 | 54 | 277 | 1.0 | 4.0 | 0.00 | 0.11 | 0.00 | 91 | 1009.2 |
| 20260506090035 | 54 | 328 | 1.0 | 6.0 | 0.00 | 0.11 | 0.00 | 90 | 1009.0 |
| 20260506084539 | 54 | 293 | 2.0 | 11.0 | 0.00 | 0.11 | 0.00 | 89 | 1008.9 |
| 20260506083034 | 54 | 249 | 3.0 | 11.0 | 0.00 | 0.11 | 0.00 | 89 | 1008.9 |
| 20260506081537 | 53 | 283 | 3.0 | 8.0 | 0.00 | 0.11 | 0.00 | 91 | 1008.8 |
| 20260506073035 | 53 | 313 | 2.0 | 7.0 | 0.00 | 0.12 | 0.00 | 93 | 1008.6 |